Location: Feudal
(51.8839°N, 107.6105°W)
Time: 04:21:45
(UTC+00:00)

Envisat - Pass Details

Date: 26 January 2022
Orbit: 764 x 765 km, 98.2° (Epoch: 25 May)

Event Time Altitude Azimuth Distance (km) Brightness Sun altitude
Rises 14:15:14 0° 3° (N) 3,245 6.1 -6.8°
Reaches altitude 10° 14:18:35 10° 340° (NNW) 2,314 5.1 -6.4°
Maximum altitude 14:21:11 14° 309° (NW) 2,027 4.6 -6.0°
Drops below altitude 10° 14:23:47 10° 278° (W) 2,308 4.9 -5.6°
Sets 14:27:08 0° 255° (WSW) 3,230 5.8 -5.1°
